Change the Weather History Date:

Monday, November 5, 2012

  Actual Average Record
Temperature  
Mean Temperature 45 °F -  
Max Temperature 49 °F 47 °F 64 °F (2011)
Min Temperature 37 °F 38 °F 37 °F (2012)
Degree Days  
Heating Degree Days 20    
Moisture  
Dew Point 41 °F    
Average Humidity 87    
Maximum Humidity 100    
Minimum Humidity 66    
Precipitation  
Precipitation 0.04 in - - ()
Sea Level Pressure  
Sea Level Pressure 29.56 in    
Wind  
Wind Speed 8 mph ()    
Max Wind Speed 20 mph    
Max Gust Speed -    
Visibility 5.8 miles    
Events Rain    
Averages and records for this station are not official NWS values.
T = Trace of Precipitation, MM = Missing Value Source: Averaged Metar Reports

Daily Weather History Graph

Daily Weather History Graph

Search for Another Location

Airport or City:

Trip Planner

Search our weather history database for the weather conditions in past years. The results will help you decide how hot, cold, wet, or windy it might be!

Date:

Astronomy

Nov. 05, 2012 Rise Set
Actual Time 7:44 AM CET 5:03 PM CET
Civil Twilight 7:07 AM CET 5:40 PM CET
Nautical Twilight 6:27 AM CET 6:20 PM CET
Astronomical Twilight 5:47 AM CET 7:00 PM CET
Moon 10:24 PM CET (11/5) 12:58 PM CET (11/5)
Length of Visible Light 10h 32m
Length of Day
9h 19m
Waning Gibbous, 65% of the Moon is Illuminated
Nov 5
Waning Gibbous
Nov 7
Last Quarter
Nov 13
New
Nov 20
First Quarter
Nov 28
Full

Hourly Weather History & Observations

Time (CET) Temp. Windchill Dew Point Humidity Pressure Visibility Wind Dir Wind Speed Gust Speed Precip Events Conditions
12:25 AM 46.4 °F 39.0 °F 42.8 °F 87% 29.33 in 5.0 mi SSW 19.6 mph - N/A Rain Light Rain
12:55 AM 46.4 °F 39.5 °F 42.8 °F 87% 29.33 in 5.0 mi SSW 17.3 mph - N/A Rain Light Rain
1:00 AM 46 °F - 43 °F 84% 29.36 in 5 mi SSW 15.7 mph - - Rain Rain Showers
1:25 AM 44.6 °F 38.8 °F 42.8 °F 93% 29.36 in 3.1 mi SW 11.5 mph - N/A Rain Rain
1:55 AM 44.6 °F 39.7 °F 42.8 °F 93% 29.36 in 3.7 mi SW 9.2 mph - N/A Rain Light Rain
2:25 AM 44.6 °F 40.7 °F 42.8 °F 93% 29.36 in 3.7 mi West 6.9 mph - N/A Rain Light Rain
2:55 AM 44.6 °F 41.4 °F 42.8 °F 93% 29.36 in 5.6 mi SW 5.8 mph - N/A Rain Light Rain
3:25 AM 44.6 °F 40.2 °F 44.6 °F 100% 29.36 in 4.3 mi SW 8.1 mph - N/A Rain Light Rain
3:55 AM 44.6 °F 41.4 °F 44.6 °F 100% 29.39 in 4.3 mi SSW 5.8 mph - N/A Rain Light Rain
4:00 AM 45 °F - 44 °F 95% 29.39 in 4 mi South 8.9 mph - - Rain Rain
4:25 AM 44.6 °F 40.2 °F 42.8 °F 93% 29.39 in 6.2 mi South 8.1 mph - N/A   Mostly Cloudy
4:55 AM 42.8 °F 40.1 °F 42.8 °F 100% 29.39 in 6.2 mi SW 4.6 mph - N/A   Partly Cloudy
5:25 AM 42.8 °F 41.1 °F 42.8 °F 100% 29.39 in 6.2 mi West 3.5 mph - N/A   Scattered Clouds
5:55 AM 42.8 °F 41.1 °F 41.0 °F 93% 29.42 in 6.2 mi West 3.5 mph - N/A   Partly Cloudy
6:25 AM 41.0 °F 38.0 °F 41.0 °F 100% 29.42 in 6.2 mi WNW 4.6 mph - N/A   Scattered Clouds
6:55 AM 42.8 °F 39.3 °F 42.8 °F 100% 29.42 in 6.2 mi West 5.8 mph - N/A Rain Light Rain
7:00 AM 43 °F - 42 °F 97% 29.45 in 6 mi West 4.5 mph - -   Mist
7:25 AM 44.6 °F 40.7 °F 42.8 °F 93% 29.44 in 6.2 mi WNW 6.9 mph - N/A Rain Light Rain Showers
7:55 AM 44.6 °F 40.7 °F 41.0 °F 87% 29.44 in 6.2 mi NNW 6.9 mph - N/A Rain Light Rain Showers
8:25 AM 42.8 °F 39.3 °F 41.0 °F 93% 29.47 in 6.2 mi NW 5.8 mph - N/A   Light Drizzle
8:55 AM 42.8 °F 41.1 °F 42.8 °F 100% 29.47 in 6.2 mi NW 3.5 mph - N/A   Light Drizzle
9:25 AM 44.6 °F 42.2 °F 41.0 °F 87% 29.50 in 6.2 mi NNW 4.6 mph - N/A   Partly Cloudy
9:55 AM 44.6 °F 43.1 °F 42.8 °F 93% 29.50 in 6.2 mi NW 3.5 mph - N/A   Partly Cloudy
10:00 AM 46 °F - 43 °F 87% 29.53 in 25 mi WNW 4.5 mph - - Rain Drizzle
10:25 AM 46.4 °F 44.3 °F 42.8 °F 87% 29.53 in 6.2 mi NW 4.6 mph - N/A   Partly Cloudy
10:55 AM 48.2 °F - 42.8 °F 82% 29.53 in 6.2 mi NW 4.6 mph - N/A   Mostly Cloudy
11:25 AM 48.2 °F - 44.6 °F 87% 29.53 in 6.2 mi NNW 3.5 mph - N/A   Partly Cloudy
11:55 AM 50.0 °F - 42.8 °F 76% 29.56 in 6.2 mi WNW 4.6 mph - N/A   Scattered Clouds
12:25 PM 46.4 °F 40.7 °F 41.0 °F 81% 29.56 in 6.2 mi NNE 12.7 mph - N/A   Scattered Clouds
12:55 PM 48.2 °F - 39.2 °F 71% 29.59 in 6.2 mi North 5.8 mph - N/A   Partly Cloudy
1:00 PM 47 °F - 40 °F 69% 29.60 in 25 mi NNW 6.7 mph - - Rain Rain
1:25 PM 48.2 °F - 41.0 °F 76% 29.59 in 6.2 mi NNW 4.6 mph - N/A   Partly Cloudy
1:55 PM 48.2 °F - 41.0 °F 76% 29.59 in 6.2 mi WNW 5.8 mph - N/A   Partly Cloudy
2:25 PM 48.2 °F - 41.0 °F 76% 29.59 in 6.2 mi NW 6.9 mph - N/A   Partly Cloudy
2:55 PM 50.0 °F - 39.2 °F 66% 29.62 in 6.2 mi NW 10.4 mph - N/A   Partly Cloudy
3:25 PM 48.2 °F - 39.2 °F 71% 29.62 in 6.2 mi NW 11.5 mph - N/A   Partly Cloudy
3:55 PM 48.2 °F - 39.2 °F 71% 29.62 in 6.2 mi WNW 10.4 mph - N/A   Partly Cloudy
4:00 PM 47 °F - 40 °F 67% 29.65 in 25 mi WNW 8.9 mph - -   Scattered Clouds
4:25 PM 46.4 °F 41.9 °F 39.2 °F 76% 29.65 in 6.2 mi NW 9.2 mph - N/A   Partly Cloudy
4:55 PM 42.8 °F 39.3 °F 39.2 °F 87% 29.65 in 6.2 mi NW 5.8 mph - N/A   Partly Cloudy
5:25 PM 42.8 °F 40.1 °F 37.4 °F 81% 29.68 in 6.2 mi West 4.6 mph - N/A   Partly Cloudy
5:55 PM 44.6 °F 43.1 °F 39.2 °F 81% 29.68 in 6.2 mi NW 3.5 mph - N/A   Partly Cloudy
6:25 PM 42.8 °F - 39.2 °F 87% 29.68 in 6.2 mi WNW 2.3 mph - N/A   Partly Cloudy
6:55 PM 42.8 °F 38.6 °F 39.2 °F 87% 29.71 in 6.2 mi West 6.9 mph - N/A   Partly Cloudy
7:00 PM 43 °F - 39 °F 81% 29.73 in 28 mi West 4.5 mph - -   Partly Cloudy
7:25 PM 42.8 °F - 39.2 °F 87% 29.71 in 6.2 mi WNW 2.3 mph - N/A   Partly Cloudy
7:55 PM 41.0 °F 37.1 °F 39.2 °F 93% 29.74 in 6.2 mi West 5.8 mph - N/A   Partly Cloudy
8:25 PM 42.8 °F 39.3 °F 39.2 °F 87% 29.74 in 6.2 mi West 5.8 mph - N/A Rain Light Rain Showers
8:55 PM 41.0 °F 36.4 °F 39.2 °F 93% 29.77 in 6.2 mi WNW 6.9 mph - N/A   Partly Cloudy
9:25 PM 41.0 °F 38.0 °F 39.2 °F 93% 29.77 in 6.2 mi WNW 4.6 mph - N/A   Partly Cloudy
9:55 PM 41.0 °F 37.1 °F 37.4 °F 87% 29.77 in 6.2 mi WNW 5.8 mph - N/A   Partly Cloudy
10:00 PM 41 °F - 38 °F 85% 29.80 in 28 mi WNW 4.5 mph - -   Unknown Precipitation
10:25 PM 42.8 °F 41.1 °F 39.2 °F 87% 29.80 in 6.2 mi WNW 3.5 mph - N/A   Partly Cloudy
10:55 PM 41.0 °F 38.0 °F 39.2 °F 93% 29.80 in 6.2 mi NW 4.6 mph - N/A   Partly Cloudy
11:25 PM 41.0 °F 38.0 °F 37.4 °F 87% 29.80 in 6.2 mi NW 4.6 mph - N/A Rain Light Rain Showers
11:55 PM 37.4 °F 33.8 °F 35.6 °F 93% 29.83 in 6.2 mi WNW 4.6 mph - N/A   Partly Cloudy